Starlink 32480

operational
NORAD ID: 62039 Int'l Des: 2024-216 Owner: SPXS Country: US Constellation: starlink
LEOCIRCULAR

About Starlink 32480

Description loading...

Live Position

Loading 3D Globe...

Upcoming Passes

Altitude History

Altitude vs Time

uPlot chart will show altitude changes over time

Two-Line Element Set

1 62039U 24216H 25304.61898788 .00032001 00000-0 11667-2 0 9993
2 62039 43.0042 265.4474 0002084 271.2580 88.8033 15.27598523 52976
Epoch: Oct 31, 2025 • Age: 27 hours

Current Status

Altitude 486.3 km
Velocity 7.62 km/s
Sub-Earth Point -19.81°S, 65.69°W
Launch Date Nov 21, 2024
Age 0.9 years
Type internet

Technical Details

Classification Payload
Mass 730.00 kg
Dry Mass 700.00 kg
Total Mass 730.00 kg
Length 0.30 m
Diameter 4.10 m
Span 29.00 m
Shape Box + pan
Manufacturer SPXS
Bus Type Starlink V2M
Phase Status In Orbit
Owner/State SPXS/US

Large Constellations

Loading constellations...